Temp
87 88 82 83 83 83 83 83 83 83 83 83 83 83 83 83 83 83 83 82 83 84 84 84 84 84 84 84 84 84 84 84 84 84 84 83 83 83 84 84 85 90 83
94 88 82 83 83 83 83 83 83 83 83 83 83 84 84 84 84 84 84 84 84 84 84 83 84 84 84 84 84 84 84 83 84 84 84 84 84 84 84 84 84 86 83
93 89 86 82 83 83 83 83 83 84 84 84 84 84 83 83 83 84 84 84 84 84 84 84 84 84 84 84 84 84 83 84 84 84 85 89 89 84 84 84 83 83 83
96 93 88 82 83 83 83 83 83 83 83 83 83 83 83 84 83 83 84 84 84 84 84 84 84 84 84 84 84 84 84 84 84 84 90 88 90 84 83 83 83 82 82
86 92 85 82 83 83 82 82 83 82 81 81 81 81 82 83 84 83 83 83 84 84 84 84 84 84 84 84 83 84 84 84 84 87 91 90 82 86 84 83 83 83 83
87 93 84 83 83 83 82 82 83 81 81 79 79 78 83 82 83 84 84 84 84 84 84 84 84 84 84 84 84 84 84 85 84 91 91 90 87 84 84 84 84 83 82
87 92 88 83 82 81 82 83 82 82 81 79 77 82 82 84 85 84 84 84 84 84 84 84 84 84 84 84 84 85 84 86 92 89 89 86 89 83 84 83 83 83 82
82 88 88 82 82 82 82 82 82 81 82 80 82 81 84 84 84 84 85 85 84 84 84 84 84 84 84 84 85 84 84 87 91 89 92 92 82 83 84 84 83 83 83
91 89 88 86 84 82 80 81 82 81 78 79 80 84 84 84 84 85 85 85 85 85 85 84 84 84 84 84 84 84 85 86 91 91 96 93 80 82 82 83 83 83 83
83 90 85 85 86 85 85 79 79 80 80 79 82 84 84 84 84 85 84 85 86 85 85 85 85 84 84 84 83 82 83 86 92 92 95 91 80 81 82 81 83 83 83
85 87 90 84 86 87 86 79 76 82 82 81 82 84 85 93 90 87 85 85 86 86 86 85 85 84 84 84 83 77 80 83 86 85 95 79 80 82 82 82 83 83 83
82 82 86 87 85 88 88 77 75 76 83 80 91 88 89 93 93 96 90 85 85 85 85 85 85 85 84 80 82 82 81 84 85 83 91 79 80 82 83 83 83 84 83
83 81 82 85 82 87 82 79 75 80 84 91 89 90 93 93 94 95 93 93 92 86 92 89 89 89 92 82 84 84 85 89 89 93 85 80 81 82 84 85 84 84 83
79 79 88 85 84 85 86 82 83 84 87 93 94 92 91 93 94 94 98 97 95 95 95 93 92 94 94 92 93 92 90 89 94 88 85 81 81 84 85 84 84 83 83
80 85 82 87 88 85 81 88 92 91 90 94 94 94 95 95 92 94 93 98 97 99 98 96 96 95 93 95 95 92 92 92 92 97 91 82 82 83 85 84 84 83 82
84 80 85 86 87 86 79 84 81 86 93 94 97 93 93 95 93 93 93 97 98 99 99 97 93 93 92 94 94 91 90 89 89 91 93 88 83 83 84 84 83 83 83
85 83 84 88 90 88 86 87 87 93 96 96 96 92 92 91 91 91 94 95 96 96 93 94 93 95 96 97 92 91 93 88 91 92 97 94 88 83 84 83 82 82 83
86 85 89 92 84 89 87 88 91 88 92 97 97 95 91 91 90 89 93 95 93 94 98 97 96 97 97 96 93 94 92 92 86 92 96 98 96 82 84 83 82 82 83
89 88 86 84 89 88 85 86 89 89 91 97 98 96 91 92 91 92 95 93 91 96 97 97 95 93 94 95 94 94 93 91 90 94 94 96 96 90 82 82 82 82 83
80 85 89 88 85 85 82 86 88 92 94 97 97 97 91 93 91 90 95 93 91 95 95 95 90 93 93 93 98 95 94 95 92 90 94 99 96 97 93 93 82 85 82
87 86 87 86 82 86 87 88 90 90 92 94 96 92 91 92 91 90 94 91 92 91 91 92 92 90 94 94 91 92 91 93 94 96 96 97 94 95 94 94 85 89 87
89 88 84 87 86 83 90 85 83 92 88 90 95 93 93 92 91 91 90 92 89 94 89 91 89 92 94 93 89 90 68 70 93 97 95 94 91 96 89 94 92 91 93
90 89 87 86 86 87 89 90 89 91 86 92 92 93 93 92 92 91 90 90 89 89 84 89 91 89 86 93 89 88 81 75 68 93 91 94 91 94 95 94 92 92 92
92 92 89 87 86 87 88 90 88 82 82 92 93 85 93 92 92 92 91 89 88 91 91 89 93 89 89 85 92 95 91 88 82 72 91 91 91 90 91 92 91 92 91
95 94 92 88 86 88 87 86 89 86 91 89 93 88 89 90 92 92 90 90 89 83 90 90 90 89 85 89 88 90 88 91 89 86 82 82 89 93 93 93 88 87 90
97 96 94 88 85 86 87 86 86 86 86 79 84 84 90 93 92 91 91 90 90 90 90 92 90 89 89 89 91 91 90 83 69 84 84 85 86 89 86 91 94 93 94
MSLP
1012.37 1013.14 1013.86 1013.97 1014.14 1014.23 1014.30 1014.33 1014.49 1014.62 1014.78 1014.90 1015.10 1015.12 1015.30 1015.25 1015.19 1015.32 1015.40 1015.55 1015.45 1015.55 1015.54 1015.64 1015.83 1015.77 1015.70 1015.71 1015.91 1015.94 1016.05 1015.95 1016.05 1015.89 1015.97 1016.10 1016.30 1016.43 1016.50 1016.55 1016.49 1016.20 1016.99
1012.08 1013.20 1013.97 1014.06 1014.28 1014.37 1014.49 1014.63 1014.78 1014.96 1015.02 1015.23 1015.34 1015.36 1015.46 1015.49 1015.51 1015.57 1015.63 1015.61 1015.68 1015.80 1015.88 1016.04 1016.01 1015.98 1015.96 1015.93 1016.05 1016.11 1016.25 1016.21 1016.28 1016.29 1016.21 1016.23 1016.43 1016.67 1016.74 1016.77 1016.92 1016.95 1017.24
1011.70 1013.28 1013.85 1014.23 1014.40 1014.57 1014.69 1014.85 1014.99 1015.12 1015.25 1015.42 1015.56 1015.63 1015.69 1015.74 1015.84 1015.83 1015.83 1015.80 1015.87 1015.99 1016.06 1016.07 1016.12 1016.14 1016.15 1016.29 1016.26 1016.41 1016.39 1016.35 1016.37 1016.43 1016.11 1015.89 1016.24 1016.75 1016.79 1017.06 1017.11 1017.17 1017.37
1011.08 1012.69 1013.63 1014.46 1014.60 1014.79 1015.00 1014.97 1015.20 1015.37 1015.53 1015.75 1015.86 1015.97 1015.99 1015.97 1016.09 1016.08 1016.02 1016.00 1016.06 1016.16 1016.17 1016.25 1016.25 1016.28 1016.39 1016.51 1016.49 1016.56 1016.49 1016.43 1016.32 1016.40 1015.87 1015.93 1015.94 1016.77 1016.96 1017.21 1017.36 1017.51 1017.53
1012.02 1012.53 1014.05 1014.69 1014.91 1015.06 1015.19 1015.28 1015.41 1015.62 1015.88 1016.20 1016.26 1016.26 1016.07 1016.28 1016.25 1016.24 1016.27 1016.29 1016.36 1016.33 1016.48 1016.44 1016.48 1016.52 1016.51 1016.48 1016.49 1016.55 1016.41 1016.33 1016.32 1016.07 1015.95 1015.94 1016.44 1017.04 1017.20 1017.34 1017.53 1017.69 1017.84
1012.64 1012.85 1014.34 1014.83 1015.12 1015.26 1015.47 1015.58 1015.63 1016.01 1016.18 1016.38 1016.53 1016.56 1016.56 1016.54 1016.45 1016.43 1016.39 1016.44 1016.61 1016.57 1016.57 1016.52 1016.64 1016.60 1016.67 1016.68 1016.62 1016.56 1016.38 1016.22 1016.25 1015.64 1015.90 1016.06 1016.56 1017.07 1017.32 1017.53 1017.57 1017.69 1017.89
1012.67 1012.99 1014.43 1015.05 1015.36 1015.65 1015.81 1015.78 1016.09 1016.29 1016.48 1016.75 1016.81 1016.70 1016.81 1016.60 1016.53 1016.60 1016.57 1016.65 1016.70 1016.67 1016.70 1016.68 1016.78 1016.80 1016.75 1016.67 1016.66 1016.54 1016.47 1016.07 1015.68 1015.89 1015.71 1016.19 1016.61 1017.07 1017.30 1017.54 1017.62 1017.74 1017.85
1013.35 1013.40 1014.55 1015.38 1015.66 1015.92 1016.06 1016.17 1016.25 1016.48 1016.68 1016.99 1016.98 1017.09 1016.89 1016.90 1016.79 1016.62 1016.73 1016.74 1016.77 1016.78 1016.75 1016.86 1016.89 1016.87 1016.86 1016.78 1016.76 1016.68 1016.47 1016.05 1015.99 1016.03 1015.52 1015.97 1017.05 1017.03 1017.30 1017.49 1017.58 1017.75 1017.80
1012.81 1013.81 1014.44 1015.26 1015.90 1016.18 1016.33 1016.43 1016.50 1016.66 1017.04 1017.29 1017.23 1017.07 1017.07 1017.08 1016.93 1016.84 1016.80 1016.79 1016.83 1016.75 1016.78 1016.89 1016.86 1016.84 1016.77 1016.75 1016.82 1016.98 1016.86 1016.29 1015.90 1015.86 1015.16 1015.81 1017.22 1017.21 1017.46 1017.59 1017.61 1017.61 1017.68
1013.92 1014.08 1014.86 1015.26 1015.62 1015.99 1016.42 1016.76 1017.01 1017.21 1017.28 1017.61 1017.29 1017.19 1017.19 1017.15 1017.10 1016.89 1016.79 1016.87 1016.77 1016.72 1016.77 1016.83 1016.77 1016.70 1016.60 1016.78 1017.24 1017.41 1017.08 1016.53 1015.76 1015.69 1015.53 1016.05 1016.98 1017.17 1017.29 1017.41 1017.49 1017.42 1017.51
1013.75 1014.17 1014.41 1015.23 1015.47 1015.98 1016.52 1017.08 1017.22 1017.13 1017.51 1017.59 1017.33 1017.19 1017.05 1016.09 1016.48 1016.64 1016.71 1016.76 1016.77 1016.85 1016.88 1016.84 1016.69 1017.02 1017.09 1017.01 1017.23 1017.86 1017.17 1017.00 1016.35 1015.93 1015.27 1016.76 1017.05 1016.93 1017.10 1017.16 1017.26 1017.18 1017.15
1014.04 1014.33 1014.61 1014.79 1015.45 1015.82 1016.29 1017.34 1017.31 1017.24 1016.88 1017.10 1016.47 1016.73 1016.32 1015.45 1015.52 1015.44 1016.34 1016.75 1016.82 1016.86 1016.77 1016.84 1016.91 1016.97 1017.18 1017.11 1016.77 1016.82 1017.05 1016.83 1016.67 1016.30 1015.99 1016.74 1017.02 1016.79 1016.94 1016.99 1017.00 1016.93 1016.94
1014.10 1014.72 1014.57 1014.83 1015.21 1015.56 1016.72 1017.13 1017.22 1016.72 1016.46 1016.24 1016.48 1016.25 1015.66 1015.79 1015.79 1015.54 1016.00 1015.96 1015.96 1016.19 1016.01 1016.21 1016.09 1015.82 1015.85 1016.65 1016.70 1016.78 1016.84 1016.53 1016.15 1015.41 1016.47 1016.67 1016.92 1016.65 1016.67 1016.75 1016.77 1016.78 1016.94
1014.39 1014.85 1014.61 1014.76 1015.15 1015.37 1016.08 1016.63 1016.36 1016.13 1015.66 1015.30 1015.61 1015.82 1016.02 1015.52 1015.37 1015.08 1014.50 1014.83 1014.60 1014.32 1014.82 1014.77 1014.63 1015.29 1015.64 1015.95 1015.37 1015.81 1016.21 1016.06 1015.24 1015.34 1016.33 1016.71 1016.86 1016.60 1016.61 1016.72 1016.78 1016.82 1016.89
1014.50 1014.48 1015.12 1014.80 1015.16 1015.81 1016.13 1015.51 1015.08 1015.13 1014.80 1014.73 1015.44 1015.46 1015.21 1015.02 1015.48 1015.32 1015.42 1014.47 1014.57 1014.41 1014.56 1014.61 1014.90 1015.17 1015.37 1015.45 1015.10 1015.49 1015.41 1015.67 1015.68 1014.77 1015.66 1016.66 1016.77 1016.59 1016.67 1016.70 1016.76 1016.87 1016.90
1014.05 1014.89 1014.98 1014.99 1015.44 1015.88 1016.33 1016.05 1015.80 1015.06 1014.80 1014.55 1014.75 1015.63 1015.61 1015.22 1015.37 1015.49 1015.44 1014.93 1014.89 1014.40 1014.44 1014.77 1015.21 1015.27 1015.41 1015.13 1014.97 1015.50 1015.75 1016.02 1015.88 1015.42 1014.87 1015.96 1016.35 1016.44 1016.57 1016.55 1016.68 1016.85 1016.87
1013.99 1014.60 1014.68 1014.76 1015.09 1015.68 1016.05 1015.82 1015.36 1015.00 1014.74 1014.54 1014.80 1015.81 1015.84 1015.75 1015.81 1015.68 1015.23 1015.29 1015.01 1015.23 1015.44 1015.33 1015.21 1014.70 1014.56 1014.54 1015.12 1015.29 1014.96 1015.81 1015.45 1015.23 1014.45 1014.85 1015.77 1016.13 1016.13 1016.43 1016.68 1016.83 1016.83
1013.47 1014.10 1014.38 1014.64 1015.60 1015.58 1015.93 1015.97 1015.22 1016.06 1015.25 1014.39 1014.72 1015.38 1016.05 1016.09 1016.07 1015.99 1015.46 1015.31 1015.72 1015.43 1014.80 1014.74 1014.92 1014.27 1014.29 1014.40 1014.67 1014.77 1015.07 1015.02 1015.70 1014.88 1014.31 1014.12 1014.63 1015.64 1016.06 1016.23 1016.52 1016.75 1016.76
1013.16 1013.95 1014.38 1015.35 1015.41 1015.74 1016.17 1016.25 1016.03 1015.74 1015.28 1014.35 1014.57 1014.80 1015.91 1015.91 1016.06 1015.64 1015.25 1015.51 1015.88 1015.17 1014.87 1014.76 1014.86 1014.98 1014.41 1014.24 1014.55 1015.02 1015.05 1015.34 1015.58 1014.71 1014.49 1014.29 1014.31 1014.81 1015.57 1016.01 1016.28 1016.55 1016.55
1014.11 1014.40 1014.12 1014.82 1015.58 1016.00 1016.34 1016.12 1015.71 1015.29 1014.67 1014.24 1014.42 1014.58 1015.68 1015.64 1016.03 1015.98 1015.33 1015.66 1015.84 1015.32 1015.09 1014.98 1015.50 1015.13 1014.65 1014.64 1014.13 1014.83 1015.10 1015.22 1015.38 1015.13 1014.27 1013.52 1014.28 1014.30 1014.57 1015.04 1016.05 1016.19 1016.27
1013.53 1013.80 1014.14 1014.69 1015.42 1015.76 1015.74 1015.15 1014.72 1014.54 1014.42 1014.34 1014.26 1015.21 1015.63 1015.52 1015.78 1015.92 1015.29 1015.78 1015.77 1015.70 1015.60 1015.65 1015.32 1015.14 1014.33 1014.86 1014.61 1014.28 1014.86 1015.57 1015.57 1014.81 1014.16 1013.77 1014.33 1014.48 1014.86 1014.85 1015.43 1015.53 1016.09
1012.48 1013.36 1014.20 1014.36 1015.00 1015.57 1015.01 1014.92 1014.84 1014.24 1014.51 1014.16 1014.20 1014.90 1015.16 1015.45 1015.64 1015.75 1015.78 1015.55 1015.86 1015.40 1015.86 1015.67 1015.62 1014.80 1014.45 1014.86 1014.58 1013.71 1015.74 1016.55 1014.82 1014.72 1014.58 1014.15 1014.73 1014.32 1014.86 1014.92 1015.37 1015.60 1015.14
1011.76 1012.65 1013.38 1013.98 1014.60 1015.02 1014.65 1014.76 1014.95 1014.83 1014.73 1014.33 1014.47 1014.80 1015.05 1015.36 1015.41 1015.77 1015.89 1015.83 1016.00 1015.86 1015.57 1015.79 1015.46 1015.09 1014.18 1014.40 1014.97 1014.58 1014.09 1014.99 1015.77 1014.62 1014.60 1014.15 1014.76 1014.31 1014.57 1015.15 1015.51 1015.62 1015.58
1010.92 1011.94 1012.74 1013.60 1014.12 1014.64 1014.82 1014.31 1014.49 1014.97 1014.54 1014.26 1014.07 1014.25 1014.72 1015.23 1015.35 1015.54 1015.74 1016.05 1016.12 1015.69 1015.47 1015.55 1015.35 1015.37 1014.94 1014.48 1014.17 1014.25 1014.88 1015.30 1014.84 1014.72 1014.07 1014.20 1014.73 1015.05 1015.14 1015.16 1015.43 1015.68 1015.73
1009.90 1010.96 1011.97 1013.01 1013.73 1013.99 1014.49 1014.66 1014.47 1014.74 1014.20 1014.45 1014.04 1014.53 1015.09 1015.23 1015.31 1015.38 1015.74 1015.90 1016.05 1015.89 1015.65 1015.63 1015.63 1015.51 1015.27 1014.71 1014.00 1013.64 1014.12 1013.81 1014.10 1013.81 1014.06 1014.31 1014.32 1014.43 1014.95 1015.21 1015.22 1015.52 1015.77
1008.75 1009.98 1011.05 1012.38 1013.27 1013.87 1014.09 1014.52 1014.61 1014.44 1014.35 1014.63 1014.67 1014.70 1014.65 1014.58 1015.05 1015.27 1015.49 1015.72 1015.65 1015.70 1015.78 1015.75 1015.92 1015.82 1015.53 1015.26 1014.85 1014.31 1013.65 1013.55 1014.41 1014.23 1014.31 1014.39 1014.31 1014.32 1014.75 1014.84 1014.99 1015.07 1015.36
Wind_Speed
8 13 9 10 8 8 8 9 10 10 9 9 9 10 10 9 8 8 10 11 12 11 11 12 12 11 11 12 11 11 10 11 10 11 11 11 10 9 9 8 3 15 11
16 12 10 10 9 8 9 8 9 10 9 8 8 10 9 7 8 9 10 10 11 11 12 12 12 12 12 11 10 10 10 9 7 7 8 11 11 9 10 10 8 14 11
19 14 12 10 9 9 9 9 9 8 8 7 7 7 7 5 7 9 8 10 11 12 12 12 12 12 12 11 10 9 8 6 4 4 7 5 11 9 11 10 10 10 10
17 16 13 9 9 9 9 11 10 9 8 6 7 7 6 7 8 9 10 10 11 11 12 12 11 12 12 10 9 7 6 4 1 4 5 4 8 11 10 8 8 7 7
15 14 14 11 9 11 12 11 12 13 13 13 12 10 6 8 9 10 10 11 11 11 12 11 11 11 10 9 7 5 6 5 3 7 6 9 3 10 8 5 8 8 6
19 14 14 12 11 12 13 12 14 14 15 15 10 4 7 9 11 10 10 11 11 11 10 10 10 9 9 7 4 3 3 5 9 4 4 8 8 10 7 4 5 6 6
9 17 14 13 14 14 13 13 12 15 16 16 5 6 8 10 10 10 10 11 10 10 10 9 8 8 7 6 5 4 2 2 8 4 5 10 10 9 6 3 2 3 4
5 14 15 15 15 15 14 14 13 13 12 11 9 9 10 9 9 10 11 11 10 9 9 8 7 7 6 5 4 4 4 5 6 3 6 9 7 7 4 2 3 3 4
9 14 14 14 14 15 14 13 11 14 7 5 7 9 9 9 9 9 9 10 10 9 9 9 9 9 8 8 6 4 2 1 7 3 7 7 7 6 2 0 3 4 4
8 14 12 14 13 12 12 11 6 10 9 12 12 9 9 9 9 9 10 8 9 9 10 11 11 11 10 8 4 5 3 9 5 6 5 6 9 5 3 2 3 4 6
9 13 12 12 11 12 11 8 5 9 11 9 9 10 11 10 12 13 7 8 8 8 8 9 10 8 8 8 10 13 18 5 5 7 5 6 4 7 3 2 4 3 5
5 12 14 14 12 12 10 7 2 4 10 8 10 9 12 3 5 8 7 7 7 7 8 7 7 9 9 5 4 13 5 2 3 6 5 6 2 6 4 3 2 2 3
10 9 10 11 8 13 10 7 4 6 8 6 6 9 6 6 7 8 6 7 8 13 9 10 11 8 6 4 4 5 3 5 6 6 9 6 1 5 5 4 5 5 2
11 10 12 8 12 11 10 7 8 6 6 8 9 5 4 6 1 3 3 5 5 6 3 7 3 4 3 4 5 5 6 4 4 1 9 7 3 6 6 6 5 5 3
12 13 10 11 11 7 1 3 4 4 4 6 8 7 7 6 4 5 1 3 6 3 6 3 4 2 2 1 1 2 2 2 4 2 7 10 6 6 7 7 6 6 4
13 12 11 12 10 9 4 3 5 4 3 3 6 6 4 4 4 5 5 3 2 4 6 1 4 4 3 3 6 4 4 1 2 5 7 9 11 9 8 7 7 5 5
14 11 12 11 11 10 9 8 4 2 5 4 7 5 4 5 4 3 2 2 4 2 4 4 4 6 2 3 2 5 5 5 1 2 2 9 11 12 12 9 6 4 4
12 14 12 12 8 10 6 3 3 4 7 3 5 7 5 3 3 5 3 2 3 3 2 1 2 5 3 1 2 1 4 2 2 6 3 3 8 6 10 10 7 3 3
12 11 13 10 11 9 6 4 3 6 9 4 3 7 6 4 3 5 3 5 3 2 2 4 4 4 2 1 2 2 3 3 3 3 4 1 4 3 7 10 10 7 6
10 10 11 14 9 7 4 5 7 5 8 4 4 3 6 3 5 4 2 0 4 2 4 3 4 4 4 4 3 2 3 2 6 5 5 1 7 5 4 4 7 7 9
16 14 10 13 12 7 7 9 7 8 5 5 3 6 4 4 5 2 5 5 4 4 6 2 4 3 3 1 5 6 5 5 3 1 2 2 6 4 4 2 2 5 7
17 15 16 12 11 8 8 3 3 3 1 1 6 6 6 4 3 4 4 3 1 2 3 3 3 4 1 3 6 7 7 8 5 3 2 3 2 1 4 4 3 2 5
16 15 14 13 12 10 9 4 2 3 5 3 5 6 6 4 4 1 3 4 1 6 5 3 5 5 5 1 3 6 2 4 3 6 5 5 2 2 4 2 2 3 2
16 16 16 14 13 12 9 7 6 1 5 5 4 2 7 4 3 4 2 3 3 6 3 6 4 5 4 4 3 2 4 3 2 1 4 6 5 2 3 1 5 0 3
17 17 16 15 13 11 11 9 7 8 5 7 3 7 4 5 5 4 3 3 5 6 3 3 1 4 4 4 4 3 3 3 3 5 6 2 1 3 6 3 2 3 3
17 16 16 15 13 13 12 12 9 5 5 4 1 2 7 6 8 5 5 4 5 2 2 2 2 3 5 6 8 4 2 1 5 0 2 1 2 3 3 3 1 2 2
Wind_Direction
143 123 138 130 119 114 114 117 110 100 97 100 94 93 97 94 102 98 93 101 101 101 103 99 102 100 95 93 87 82 77 83 83 90 89 83 76 69 67 45 58 103 104
133 136 140 129 118 112 117 115 115 112 108 100 99 94 96 108 102 95 103 104 101 102 100 102 103 101 94 94 92 87 82 74 83 95 109 109 90 79 71 56 89 99 102
131 129 145 126 119 118 112 111 107 111 115 112 106 104 107 121 103 104 105 110 107 105 104 102 102 101 98 98 95 87 88 85 83 140 189 184 95 87 74 78 87 101 106
135 140 135 130 118 124 113 107 113 110 105 84 97 104 125 119 111 115 110 107 102 103 101 105 103 101 99 99 98 107 104 99 195 250 190 126 84 101 90 95 100 104 109
81 117 117 131 122 121 112 121 109 105 98 88 68 71 109 108 114 117 118 112 112 110 107 109 108 109 112 117 124 136 137 168 250 287 65 66 75 92 93 79 148 116 76
120 124 122 126 119 123 119 119 112 110 101 85 76 201 119 122 136 129 119 118 114 116 120 119 122 122 121 125 139 153 177 200 229 100 132 112 90 94 89 75 78 92 101
121 119 130 131 118 111 109 125 117 125 113 102 171 176 149 132 128 128 127 124 128 129 133 130 129 131 143 142 150 141 187 210 115 116 190 76 92 95 104 104 100 119 125
130 114 129 121 118 117 110 117 116 99 114 130 172 168 137 133 122 128 134 132 136 140 145 148 149 155 159 168 170 158 189 233 106 156 76 92 94 104 118 150 155 182 182
129 122 131 128 124 111 102 93 106 91 83 178 154 156 143 136 133 130 131 135 138 147 160 169 174 181 181 184 175 158 211 64 119 157 136 107 101 86 96 283 198 207 209
174 125 136 135 131 132 120 89 55 147 181 144 187 162 160 148 162 156 155 149 154 165 176 183 187 192 189 176 159 43 288 231 104 160 86 92 139 148 173 161 259 229 226
133 145 143 143 135 133 121 84 16 141 138 178 173 188 189 173 185 171 101 151 179 184 192 199 207 211 198 185 134 100 272 303 350 318 85 107 144 140 174 203 262 262 258
152 157 150 145 155 140 126 98 299 205 193 192 186 197 223 212 51 117 130 184 190 195 195 199 196 203 207 212 200 171 234 268 263 280 86 114 172 116 138 154 245 273 283
161 128 137 152 131 145 134 155 220 233 196 164 177 212 114 172 179 185 145 189 189 198 191 190 196 198 219 145 151 189 267 261 239 233 113 103 158 104 104 91 66 49 46
136 149 132 173 150 167 150 175 198 213 229 175 169 183 186 230 86 263 161 105 237 133 157 187 105 71 141 200 187 143 227 247 316 279 114 113 152 110 106 90 71 57 54
149 162 150 160 137 128 228 213 193 164 218 116 168 190 194 137 141 213 100 302 9 245 140 231 91 57 215 28 293 357 217 21 2 301 117 144 136 107 105 95 73 57 57
156 161 153 154 147 144 188 180 246 220 98 180 139 157 195 190 199 143 190 158 168 310 57 7 33 358 346 287 97 85 115 3 145 279 137 145 148 133 121 94 77 58 49
151 161 164 148 154 165 165 197 245 84 168 181 122 162 181 256 155 328 135 257 13 60 219 200 226 179 165 207 118 126 158 143 239 226 266 149 152 154 129 111 96 63 26
155 155 161 154 186 161 187 210 180 159 270 185 149 154 175 168 253 228 204 119 37 279 278 29 348 306 56 90 143 101 104 153 186 216 141 287 106 147 135 132 128 115 54
136 157 163 155 179 171 149 176 213 158 245 184 160 147 185 200 160 282 233 100 261 283 345 285 87 306 60 95 177 217 156 154 182 3 348 147 117 164 175 158 142 148 119
135 172 170 170 147 179 191 215 224 176 238 171 167 127 174 179 196 265 218 176 262 255 198 20 342 357 321 355 346 137 325 319 171 184 192 189 72 11 81 86 152 160 149
156 171 162 168 162 177 207 204 195 191 211 187 162 120 160 185 198 233 273 169 248 272 359 256 237 193 279 66 264 174 117 284 275 82 113 26 88 82 63 33 339 160 145
159 167 174 183 169 204 202 245 309 190 302 268 156 146 215 193 186 235 295 158 46 222 230 265 297 295 251 6 324 307 104 262 192 68 90 91 39 155 153 91 9 46 326
171 175 177 181 180 205 248 187 197 289 199 195 147 186 183 199 209 248 173 320 171 276 155 199 228 298 298 202 319 321 354 63 207 177 148 92 64 339 85 88 337 84 21
179 184 183 189 193 193 206 223 219 350 262 234 228 94 138 203 199 156 124 201 231 279 55 208 198 312 323 320 299 51 359 37 96 223 121 111 121 263 83 282 109 47 328
180 183 189 190 196 207 191 251 199 245 193 225 259 128 301 136 214 172 179 187 218 261 112 351 9 320 295 332 245 323 35 302 28 9 75 213 143 147 131 229 148 100 212
177 184 182 184 195 202 195 203 233 248 254 9 170 192 184 187 182 188 177 203 219 269 170 235 340 303 336 343 326 292 325 133 183 10 24 353 208 105 148 179 108 175 178